Location: Ostrava
(49.8330°N, 18.2830°E)
Time: 14:08:25
(UTC+02:00)

Cosmos 2221 - Visible Passes

Search period start: 21 April 2014 00:00
Search period end: 01 May 2014 00:00
Orbit: 600 x 622 km, 82.5° (Epoch: 20 April)

Date Brightness Start Highest point End Pass type
(mag) Time Alt. Az. Time Alt. Az. Time Alt. Az.
21 Apr 4.8 01:23:24 10° NNE 01:26:28 18° ENE 01:27:44 16° E visible
21 Apr 2.6 03:00:16 10° NNW 03:04:34 56° W 03:04:43 55° WSW visible
22 Apr 4.1 01:37:48 10° N 01:41:36 28° ENE 01:42:21 26° E visible
22 Apr 3.3 03:15:24 10° NNW 03:19:19 33° W 03:19:19 33° W visible
23 Apr 3.3 01:52:25 10° N 01:56:38 44° ENE 01:56:58 43° E visible
23 Apr 4.0 03:30:45 10° NW 03:33:56 21° W 03:33:56 21° W visible
24 Apr 5.3 00:32:37 10° NE 00:33:00 10° ENE 00:33:22 10° ENE visible
24 Apr 2.5 02:07:11 10° N 02:11:34 74° E 02:11:36 74° E visible
24 Apr 4.5 03:46:38 10° NW 03:48:34 13° W 03:48:34 13° W visible
25 Apr 4.9 00:45:32 10° NNE 00:48:13 16° ENE 00:49:16 15° E visible
25 Apr 2.5 02:22:05 10° NNW 02:26:14 65° W 02:26:14 65° W visible
26 Apr 4.3 00:59:46 10° NNE 01:03:21 24° ENE 01:03:55 23° E visible
26 Apr 3.2 02:37:08 10° NNW 02:40:54 39° W 02:40:54 39° W visible
27 Apr 3.6 01:14:18 10° N 01:18:23 38° ENE 01:18:35 37° E visible
27 Apr 3.9 02:52:22 10° NNW 02:55:33 24° W 02:55:33 24° W visible
28 Apr 2.8 01:28:59 10° N 01:33:15 62° ENE 01:33:15 62° ENE visible
28 Apr 4.5 03:07:59 10° NW 03:10:13 15° WNW 03:10:13 15° WNW visible
29 Apr 4.9 00:07:39 10° NNE 00:09:51 14° ENE 00:10:56 13° ENE visible
29 Apr 2.5 01:43:49 10° NNW 01:47:55 75° NW 01:47:55 75° NW visible
30 Apr 4.4 00:21:41 10° NNE 00:24:59 21° ENE 00:25:37 20° E visible
30 Apr 3.1 01:58:47 10° NNW 02:02:36 45° WNW 02:02:36 45° WNW visible
